EW8487 Weather Reports


time (UTC)temp
C
wind
direction
speed
KPH
gust
KPH
rain 1hr
cm
rain 24hr
cm
rain mn
cm
humidity
%
barometer
mb
20260510211003 12 294 1.6 4.8 0.00 0.00 0.00 72 1011.6
20260510205507 12 261 1.6 8.0 0.00 0.00 0.00 71 1011.5
20260510204004 13 271 3.2 6.4 0.00 0.00 0.00 69 1011.4
20260510195508 13 276 3.2 6.4 0.00 0.00 0.00 68 1011.2
20260510194004 13 298 1.6 4.8 0.00 0.00 0.00 66 1011.1
20260510185530 15 8 0.0 4.8 0.00 0.00 0.00 61 1010.8
20260510182520 15 273 1.6 4.8 0.00 0.00 0.00 60 1010.6
20260510181005 15 285 1.6 6.4 0.00 0.00 0.00 57 1010.4
20260510175509 16 269 4.8 6.4 0.00 0.00 0.00 55 1010.5
20260510174004 16 282 3.2 6.4 0.00 0.00 0.00 56 1010.2
20260510172508 17 295 3.2 6.4 0.00 0.00 0.00 53 1010.4
20260510171005 17 292 3.2 6.4 0.00 0.00 0.00 53 1010.1
20260510165508 18 313 1.6 6.4 0.00 0.00 0.00 50 1010.2
20260510164004 18 253 3.2 6.4 0.00 0.00 0.00 50 1010.0
20260510162507 17 295 3.2 6.4 0.00 0.00 0.00 52 1009.9
20260510161004 18 274 4.8 6.4 0.00 0.00 0.00 51 1009.9
20260510155508 18 347 1.6 8.0 0.00 0.00 0.00 51 1009.7
20260510154003 17 246 0.0 6.4 0.00 0.00 0.00 50 1010.1
20260510151004 18 57 1.6 6.4 0.00 0.00 0.00 52 1009.9
20260510145512 18 261 3.2 6.4 0.00 0.00 0.00 51 1009.9
20260510142507 19 24 1.6 4.8 0.00 0.00 0.00 49 1010.1
20260510141014 20 283 1.6 4.8 0.00 0.00 0.00 48 1010.4
20260510135508 20 260 1.6 4.8 0.00 0.00 0.00 48 1010.4
20260510132509 19 271 1.6 3.2 0.00 0.00 0.00 48 1010.4
20260510131003 20 256 1.6 6.4 0.00 0.00 0.00 48 1010.6
20260510125508 20 286 1.6 3.2 0.00 0.00 0.00 48 1010.6
20260510124004 18 317 1.6 4.8 0.00 0.00 0.00 51 1010.8
20260510122507 19 262 1.6 3.2 0.00 0.00 0.00 49 1011.0
20260510121004 20 274 1.6 3.2 0.00 0.00 0.00 47 1011.2
20260510115507 19 307 0.0 3.2 0.00 0.00 0.00 50 1011.2
20260510112509 19 221 3.2 3.2 0.00 0.00 0.00 49 1011.6
20260510111010 18 190 3.2 3.2 0.00 0.00 0.00 50 1011.6
20260510105507 18 46 0.0 3.2 0.00 0.00 0.00 52 1011.6
20260510104004 18 153 0.0 1.6 0.00 0.00 0.00 53 1011.8
20260510102508 17 211 0.0 1.6 0.00 0.00 0.00 55 1012.0
20260510101003 18 141 0.0 1.6 0.00 0.00 0.00 54 1012.1
20260510095547 17 190 0.0 3.2 0.00 0.00 0.00 54 1012.0
20260510094037 18 97 0.0 1.6 0.00 0.00 0.00 51 1011.9
20260510091020 16 192 1.6 3.2 0.00 0.10 0.00 54 1011.6
20260510084008 17 355 0.0 1.6 0.00 0.28 0.00 51 1011.9
20260510082521 16 187 0.0 1.6 0.00 0.33 0.00 56 1011.8
20260510081005 15 122 0.0 1.6 0.00 0.33 0.00 54 1011.7
20260510075508 15 219 1.6 3.2 0.00 0.33 0.00 58 1011.9
20260510074004 15 242 0.0 1.6 0.00 0.33 0.00 59 1011.8
20260510072508 13 296 1.6 3.2 0.00 0.33 0.00 61 1011.9
20260510071006 13 208 0.0 3.2 0.00 0.33 0.00 66 1011.7
20260510065508 12 224 1.6 3.2 0.00 0.33 0.00 68 1011.8
20260510064004 11 237 0.0 3.2 0.00 0.33 0.00 74 1011.8
20260510062507 10 212 0.0 1.6 0.00 0.33 0.00 76 1011.6
20260510061004 9 258 0.0 1.6 0.00 0.33 0.00 79 1011.4
20260510055507 8 217 0.0 1.6 0.00 0.33 0.00 83 1011.3
20260510054004 8 274 0.0 1.6 0.00 0.33 0.00 84 1011.5
20260510052519 7 308 0.0 1.6 0.00 0.33 0.00 85 1011.0
20260510051004 7 247 1.6 1.6 0.00 0.33 0.00 85 1011.1
20260510045507 7 290 0.0 1.6 0.00 0.33 0.00 85 1011.2
20260510044004 7 257 0.0 1.6 0.00 0.33 0.00 86 1011.0
20260510042507 7 271 1.6 1.6 0.00 0.33 0.00 85 1010.9
20260510041003 7 223 0.0 1.6 0.00 0.33 0.00 85 1011.0
20260510034005 9 267 1.6 3.2 0.00 0.33 0.00 79 1011.0
20260510032511 9 248 1.6 4.8 0.00 0.33 0.00 76 1011.1
20260510031005 9 350 1.6 3.2 0.00 0.33 0.00 78 1010.9
20260510025508 9 293 1.6 3.2 0.00 0.33 0.00 79 1011.0
20260510024004 8 306 0.0 1.6 0.00 0.33 0.00 79 1011.1
20260510022508 8 265 0.0 3.2 0.00 0.33 0.00 82 1010.8
20260510021004 8 300 1.6 3.2 0.00 0.33 0.00 84 1010.9
20260510015508 8 145 1.6 3.2 0.00 0.33 0.00 83 1010.9
20260510014005 8 269 0.0 3.2 0.00 0.33 0.00 83 1010.9
20260510012521 8 254 1.6 1.6 0.00 0.33 0.00 84 1010.9
20260510011005 8 267 0.0 3.2 0.00 0.33 0.00 85 1011.1
20260510005521 8 312 1.6 3.2 0.00 0.33 0.00 84 1011.0
20260510004004 8 295 0.0 3.2 0.00 0.33 0.00 83 1011.3
20260510001045 9 279 1.6 3.2 0.00 0.33 0.00 81 1011.6
20260509232528 10 272 1.6 4.8 0.00 0.33 0.00 80 1011.7
20260509231017 10 236 1.6 3.2 0.00 0.33 0.00 79 1011.7
20260509225515 10 309 1.6 3.2 0.00 0.33 0.00 78 1011.7
20260509224005 11 177 0.0 6.4 0.00 0.33 0.00 74 1011.6
20260509222507 10 253 1.6 4.8 0.00 0.33 0.00 79 1011.7
20260509221006 10 286 1.6 3.2 0.00 0.33 0.00 82 1011.8
20260509215507 10 249 0.0 4.8 0.00 0.33 0.33 81 1011.7
20260509212508 11 282 1.6 4.8 0.00 0.33 0.33 79 1011.9